This is the latest recevied weather packets stored in our database for station/object KB9HUO. If no packets are shown the sender has not sent any weather packets the latest 10 day(s).
| Time | Temp. | Humidity | Pressure | Rain* | Wind** | Luminosity | Snow |
|---|---|---|---|---|---|---|---|
| 1788484913 | 26.67° C | 88% | 1016.2 hPa | 0 mm | - | 0 W/m² | - |
| 1788484613 | 27.22° C | 87% | 1016.2 hPa | 0 mm | - | 0 W/m² | - |
| 1788484308 | 27.22° C | 87% | 1016.2 hPa | 0 mm | - | 0 W/m² | - |
| 1788484004 | 27.22° C | 87% | 1016.2 hPa | 0 mm | - | 0 W/m² | - |
| 1788483700 | 27.22° C | 87% | 1016.1 hPa | 0 mm | - | 0 W/m² | - |
| 1788483395 | 27.22° C | 87% | 1016.1 hPa | 0 mm | - | 0 W/m² | - |
| 1788483091 | 27.22° C | 86% | 1016.1 hPa | 0 mm | - | 0 W/m² | - |
| 1788482786 | 27.78° C | 85% | 1016.1 hPa | 0 mm | - | 0 W/m² | - |
| 1788482486 | 27.78° C | 84% | 1015.8 hPa | 0 mm | - | 0 W/m² | - |
| 1788482182 | 28.33° C | 83% | 1015.9 hPa | 0 mm | - | 0 W/m² | - |
| 1788481878 | 28.33° C | 83% | 1015.6 hPa | 0 mm | - | 0 W/m² | - |
| 1788481574 | 28.33° C | 83% | 1015.6 hPa | 0 mm | - | 0 W/m² | - |
| 1788481274 | 28.89° C | 83% | 1015.5 hPa | 0 mm | - | 1 W/m² | - |
| 1788480969 | 28.89° C | 81% | 1015.6 hPa | 0 mm | - | 1 W/m² | - |
| 1788480668 | 29.44° C | 80% | 1015.6 hPa | 0 mm | - | 2 W/m² | - |
| 1788480363 | 30° C | 78% | 1015.4 hPa | 0 mm | - | 3 W/m² | - |
| 1788480059 | 30° C | 76% | 1015.6 hPa | 0 mm | - | 5 W/m² | - |
| 1788479758 | 30.56° C | 75% | 1015.5 hPa | 0 mm | - | 6 W/m² | - |
| 1788479455 | 30.56° C | 75% | 1015.7 hPa | 0 mm | - | 8 W/m² | - |
| 1788479149 | 31.11° C | 71% | 1015.5 hPa | 0 mm | - | 10 W/m² | - |
| 1788478845 | 31.67° C | 72% | 1015.4 hPa | 0 mm | - | 12 W/m² | - |
| 1788478541 | 31.67° C | 70% | 1015.4 hPa | 0 mm | - | 13 W/m² | - |
| 1788478236 | 31.67° C | 67% | 1015.4 hPa | 0 mm | - | 15 W/m² | - |
| 1788477932 | 32.22° C | 65% | 1015.4 hPa | 0 mm | - | 16 W/m² | - |
| 1788477627 | 32.78° C | 64% | 1015.4 hPa | 0 mm | - | 17 W/m² | - |
* Rain latest hour (hover to see other rain measurements)
** Current wind speed in m/s (hover to see current wind gust speed)